Regional Weather Roundup
Issued by NWS Upton, NY

Current Version | Previous Version | Graphics & Text | Print | Product List | Glossary Off
Versions: 1 2 3 4 5 6 7 8 9 10 11 12 13 14 15 16 17 18 19 20 21 22 23 24 25 26 27 28 29 30 31 32 33 34 35 36 37 38 39 40 41 42 43 44 45 46 47 48 49 50

000
ASUS41 KOKX 300605
RWROKX

REGIONAL WEATHER ROUNDUP
NATIONAL WEATHER SERVICE NEW YORK NY
100 AM EST FRI JAN 30 2015

NOTE: "FAIR" INDICATES FEW OR NO CLOUDS BELOW 12,000 FEET WITH NO
SIGNIFICANT WEATHER AND/OR OBSTRUCTIONS TO VISIBILITY.

NYZ071-072-176-178-NJZ106-104-300700-
NEW YORK CITY METRO AREA


CITY           SKY/WX    TMP DP  RH WIND       PRES   REMARKS
CENTRAL PARK   LGT SNOW  32  28  85 S8        29.98F VSB 1   WCI  25
LAGUARDIA APRT LGT SNOW  31  29  92 S8        29.97F VSB 1   WCI  23
KENNEDY INTL   LGT SNOW  33  29  85 SW8       29.98F FOG     WCI  26
NEWARK/LIBERTY LGT SNOW  30  29  96 S3        29.96F FOG
BRNX BOT. GARD   N/A    N/A N/A N/A S10       29.96F
TETERBORO      LGT SNOW  30  28  93 S6        29.96F VSB 1   WCI  24
$$

NYZ177-179-078>081-300700-
LONG ISLAND NEW YORK

CITY           SKY/WX    TMP DP  RH WIND       PRES   REMARKS
FARMINGDALE    LGT SNOW  34  30  85 SW6       29.97F FOG     WCI  29
ISLIP          CLOUDY    35  30  82 SW7       29.96F WCI  29
SHIRLEY        LGT RAIN  37  32  82 SW8       29.99F WCI  31
WESTHAMPTON    CLOUDY    37  31  78 SW5       29.99F WCI  33
MONTAUK POINT    N/A     38  32  79 CALM      29.99F
$$

NYZ052-065-067-300700-
HUDSON VALLEY

CITY           SKY/WX    TMP DP  RH WIND       PRES   REMARKS
WHITE PLAINS   LGT SNOW  30  27  88 S6        29.93F VSB 1   WCI  24
NEWBURGH       LGT SNOW  27  27 100 S8        29.92F FOG     WCI  18
MONTGOMERY     LGT SNOW  27  25  92 CALM      29.91F FOG
POUGHKEEPSIE   LGT SNOW  30  27  88 CALM      29.94F FOG
ALBANY         FLURRIES  28  23  81 S20G25    29.88F WCI  15
$$

NJZ001-105-106-008-010-013-015-019>022-104-300700-
NEW JERSEY

CITY           SKY/WX    TMP DP  RH WIND       PRES   REMARKS
NEWARK/LIBERTY LGT SNOW  30  29  96 S3        29.96F FOG
TETERBORO      LGT SNOW  30  28  93 S6        29.96F VSB 1   WCI  24
CALDWELL       LGT SNOW  29  27  92 CALM      29.95F FOG
MORRISTOWN     LGT SNOW  32  28  86 CALM      29.94F
SOMERVILLE     CLOUDY    30  27  88 CALM      29.93F
SUSSEX         LGT SNOW  27  23  85 CALM      29.91F FOG
ANDOVER          N/A     26  24  92 SW3       29.91F
TRENTON        LGT SNOW  30  26  85 SE6       29.93F FOG     WCI  24
MILLVILLE      CLOUDY    36  27  69 S5        29.93F WCI  32
ATLANTIC CITY  CLOUDY    37  28  70 S9        29.95F WCI  30
WRIGHTSTOWN    FLURRIES  32  26  77 SE2       29.91F
TOMS RIVER     CLOUDY    34  28  80 S6        29.95F WCI  29
BELMAR         CLOUDY    34  25  69 SE3       29.95F
$$

PAZ047>061-062-071-300700-
EASTERN PENNSYLVANIA

CITY           SKY/WX    TMP DP  RH WIND       PRES   REMARKS
PHILADELPHIA   FLURRIES  35  23  61 CALM      29.94F
ALLENTOWN      FLURRIES  29  24  82 CALM      29.92F
SCRANTON       LGT SNOW  27  23  85 SW5       29.85F FOG     WCI  22
$$

CTZ002-004>006-009-010-012-RIZ004-006-007-MAZ004-011-015-300700-
SOUTHERN NEW ENGLAND
 IN CT

CITY           SKY/WX    TMP DP  RH WIND       PRES   REMARKS
BRADLEY INTL   FLURRIES  29  23  78 CALM      29.96F
HARTFORD       CLOUDY    29  24  82 SE3       29.98F
DANBURY        LGT SNOW  30  25  81 CALM      29.95F
WTRBRY/OXFORD  CLOUDY    30  21  69 S3        29.94F
BRIDGEPORT     FLURRIES  32  29  88 CALM      29.98F
MERIDEN        CLOUDY    29  24  82 CALM      29.97F
NEW HAVEN      CLOUDY    33  29  85 CALM      29.97F
CHESTER        MOCLDY    32  30  93 CALM      29.96F
GROTON         CLOUDY    36  32  85 SE9       29.98F WCI  29
WILLIMANTIC    CLOUDY    29  23  78 CALM      29.98F

 IN RI

CITY           SKY/WX    TMP DP  RH WIND       PRES   REMARKS
PROVIDENCE     CLOUDY    29  24  82 N3        30.01F
BLOCK ISLAND   CLOUDY    37  30  75 SE9       29.98F WCI  31
WESTERLY       CLOUDY    37  32  82 SE8       29.99F WCI  31

 IN MA

CITY           SKY/WX    TMP DP  RH WIND       PRES   REMARKS
BOSTON         CLOUDY    28  22  78 E8        30.02F WCI  20
WORCESTER      CLOUDY    25  20  81 SE5       29.94F WCI  19
WESTFIELD      LGT SNOW  27  24  89 CALM      29.96F FOG
PROVINCETOWN   CLOUDY    30  25  80 S5        30.04F WCI  25
NANTUCKET      CLOUDY    31  26  82 E8        30.03F WCI  23
$$

ANZ330-335-338-340-345-350-353-355-300700-
COASTAL MARINE OBSERVATIONS


STATION/POSITION TIME  SKY/WX   TEMP    WIND        PRES    VSBY  WAVE
                                AIR SEA DIR/SP/G                  HT/PER
                 (UTC)          (F)     (DEG/KT/KT) (MB)    (MI)  (FT/S)
NY HARB ENTRANCE 0600            37 39  220/  8/ 10 1014.6          3/ 5
4S FIRE IS       0600               37                N/A           3/ 4
20S FIRE ISLAND  0500               42              1016.2          3/ 4
23SW MTP         0600                                 N/A           3/ 4
HUDSON CANYON    NOT AVBL
EXECUTION ROCKS  0600            32 33  210/  8/ 10   N/A
WESTERN LI SOUND 0600            32     230/  4/  6   N/A           0
CENTRAL LI SOUND 0500            35 35   CALM  /  2   N/A           0
EASTERN LI SOUND NOT AVBL
ROBBINS REEF     0600            31     180/ 10/ 12 1013.7
$$


>>>>>>>>>>>>>>>>>>>>>>>>>>>> KEY <<<<<<<<<<<<<<<<<<<<<<<<<<<
>                                                          <
>     SKY/WX - SKY CONDITION/PRESENT WEATHER               <
>     TMP    - TEMPERATURE IN FAHRENHEIT                   <
>     DP     - DEWPOINT IN FAHRENHEIT                      <
>     RH     - RELATIVE HUMIDITY IN PERCENT                <
>     WIND   - DIRECTION AND SPEED IN MPH                  <
>     PRES   - MEAN SEA LEVEL PRESSURE IN INCHES OF HG     <
>     WCI    - WIND CHILL INDEX                            <
>     VSB    - VISIBILITY IN MILES                         <
>     HX     - HEAT INDEX                                  <
>     TC     - TEMPERATURE IN CELSIUS                      <
>     VRB    - VARIABLE WIND DIRECTION                     <
>                                                          <
>>>>>>>>>>>>>>>>>>>>>>>>>>>> KEY <<<<<<<<<<<<<<<<<<<<<<<<<<<




USA.gov is the U.S. government's official web portal to all federal, state and local government web resources and services.